📊 Raw Sensor Data
Showing records 48351 to 48375 of 85,099 total
| ID | Distance (ft) | Battery V | Battery A | Int Temp (°F) | Int Humid (%) | Ext Temp (°F) | Solar V | RSSI | SNR | Time Stamp |
|---|---|---|---|---|---|---|---|---|---|---|
| 36761 | 15.1 | 3.92 | 0 | 50 | 37 | 53 | 5.10 | -82 | 8 | 04/03/2025 09:30 AM |
| 36760 | 15.0 | 3.92 | 0 | 49 | 37 | 53 | 5.10 | -82 | 8 | 04/03/2025 09:15 AM |
| 36759 | 15.1 | 3.92 | 5 | 47 | 37 | 50 | 5.10 | -82 | 7 | 04/03/2025 09:00 AM |
| 36758 | 15.1 | 3.92 | 0 | 46 | 37 | 50 | 5.10 | -83 | 9 | 04/03/2025 08:45 AM |
| 36757 | 15.1 | 3.91 | 0 | 45 | 37 | 48 | 5.10 | -83 | 7 | 04/03/2025 08:30 AM |
| 36756 | 15.0 | 3.91 | 0 | 43 | 37 | 53 | 5.10 | -83 | 8 | 04/03/2025 08:15 AM |
| 36755 | 15.0 | 3.92 | 0 | 42 | 37 | 52 | 5.10 | -82 | 8 | 04/03/2025 08:00 AM |
| 36754 | 15.0 | 3.92 | 0 | 40 | 38 | 47 | 5.10 | -81 | 7 | 04/03/2025 07:45 AM |
| 36753 | 15.1 | 3.98 | 28 | 38 | 38 | 46 | 4.50 | -82 | 8 | 04/03/2025 07:30 AM |
| 36752 | 15.0 | 3.98 | 0 | 37 | 39 | 41 | 4.50 | -83 | 8 | 04/03/2025 07:15 AM |
| 36751 | 14.9 | 3.82 | 0 | 35 | 40 | 39 | 4.50 | -83 | 8 | 04/03/2025 07:00 AM |
| 36750 | 15.0 | 3.90 | -10 | 34 | 40 | 36 | 1.80 | -81 | 8 | 04/03/2025 06:45 AM |
| 36749 | -- | 3.92 | -5 | 34 | 40 | 36 | 0.40 | -82 | 8 | 04/03/2025 06:31 AM |
| 36748 | 15.0 | 3.83 | -5 | 35 | 40 | 37 | 0.00 | -83 | 8 | 04/03/2025 06:15 AM |
| 36747 | 15.1 | 3.83 | -5 | 35 | 40 | 36 | 0.00 | -84 | 8 | 04/03/2025 06:00 AM |
| 36746 | 15.0 | 3.83 | -5 | 36 | 40 | 37 | 0.10 | -83 | 8 | 04/03/2025 05:45 AM |
| 36745 | 15.0 | 3.83 | -5 | 36 | 40 | 38 | 0.00 | -83 | 8 | 04/03/2025 05:30 AM |
| 36744 | 14.9 | 3.84 | -5 | 35 | 40 | 38 | 0.10 | -83 | 8 | 04/03/2025 05:15 AM |
| 36743 | 14.9 | 3.84 | -5 | 35 | 40 | 38 | 0.10 | -82 | 8 | 04/03/2025 05:00 AM |
| 36742 | 15.0 | 3.84 | -5 | 35 | 40 | 37 | 0.00 | -81 | 8 | 04/03/2025 04:45 AM |
| 36741 | 15.0 | 3.84 | -5 | 36 | 40 | 37 | 0.00 | -80 | 7 | 04/03/2025 04:30 AM |
| 36740 | 15.0 | 3.84 | -5 | 36 | 40 | 38 | 0.00 | -81 | 8 | 04/03/2025 04:15 AM |
| 36739 | 14.9 | 3.92 | -5 | 37 | 40 | 39 | 0.10 | -81 | 8 | 04/03/2025 04:00 AM |
| 36738 | -- | 3.92 | -5 | 37 | 40 | 39 | 0.10 | -81 | 8 | 04/03/2025 03:45 AM |
| 36737 | -- | 3.92 | -5 | 36 | 40 | 39 | 0.00 | -80 | 8 | 04/03/2025 03:30 AM |